Probability
0 0 0 0 0 0 0 0 0 0 0 0 0 0 0 0 0 0 0 0 0 0 0 0 0 0 0 0 0 0 0 0 0 0 0 0 0 0 0 0 0 0 0 0
0 0 0 0 0 0 0 0 0 0 0 0 0 0 0 0 0 0 0 0 0 0 0 0 0 0 0 0 0 0 0 0 0 0 0 0 0 0 0 0 0 0 0 0
0 0 0 0 0 0 0 0 0 0 0 0 0 0 0 0 0 0 0 0 0 0 0 0 0 0 0 0 0 0 0 0 0 0 0 0 0 0 0 0 0 0 0 0
0 0 0 0 0 0 0 0 0 0 0 0 0 0 0 0 0 0 0 0 0 0 0 0 0 0 0 0 0 0 0 0 0 0 0 0 0 0 0 0 0 0 0 0
0 0 0 0 0 0 0 0 0 0 0 0 0 0 0 0 0 0 0 0 0 0 0 0 0 0 0 0 0 0 0 0 0 0 0 0 0 0 0 0 0 0 0 0
0 0 0 0 0 0 0 0 0 0 0 0 0 0 0 0 0 0 0 0 0 0 0 0 0 0 0 0 0 0 0 0 0 0 0 0 0 0 0 0 0 0 0 0
0 0 0 0 0 0 0 0 0 0 0 0 0 0 0 0 0 0 0 0 0 0 0 0 0 0 0 0 0 0 0 0 0 0 0 0 0 0 0 0 0 0 0 0
0 0 0 0 0 0 0 0 0 0 0 0 0 0 0 0 0 0 0 0 0 0 0 0 0 0 0 0 0 0 0 0 0 0 0 0 0 0 0 0 0 0 0 0
0 0 0 0 0 0 0 0 0 0 0 0 0 0 0 0 0 0 0 0 0 0 0 0 0 0 0 0 0 0 0 0 0 0 0 0 0 0 0 0 0 0 0 0
0 0 0 0 0 0 0 0 0 0 0 0 0 0 0 0 0 0 0 0 0 0 0 0 0 0 0 0 0 0 0 0 0 0 0 0 0 0 0 0 0 0 0 0
0 0 0 0 0 0 0 0 0 0 0 0 0 0 0 0 0 0 0 0 0 0 0 0 0 0 0 0 0 0 0 0 0 0 0 0 0 0 0 0 0 0 0 0
0 0 0 0 0 0 0 0 0 0 0 0 0 0 0 0 0 0 0 0 0 0 0 0 0 0 0 0 0 0 0 0 0 0 0 0 0 0 0 0 0 0 0 0
0 0 0 0 0 0 0 0 0 0 0 0 0 0 0 0 0 0 0 0 0 0 0 0 0 0 0 0 0 0 0 0 0 0 0 0 0 0 0 0 0 0 0 0
0 0 0 0 0 0 0 0 0 0 0 0 0 0 0 0 0 0 0 0 0 0 0 0 0 0 0 0 0 0 0 0 0 0 0 0 0 0 0 0 0 0 0 0
0 0 0 0 0 0 0 0 0 0 0 0 0 0 0 0 0 0 0 0 0 0 0 0 0 0 0 0 0 0 0 0 0 0 0 0 0 0 0 0 0 0 0 0
0 0 0 0 0 0 0 0 0 0 0 0 0 0 0 0 0 0 0 0 0 0 0 0 0 0 0 0 0 0 0 0 0 0 0 0 0 0 0 0 0 0 0 0
0 0 0 0 0 0 0 0 0 0 0 0 0 0 0 0 0 0 0 0 0 0 0 0 0 0 0 0 0 0 0 0 0 0 0 0 0 0 0 0 0 0 0 0
0 0 0 0 0 0 0 0 0 0 0 0 0 0 0 0 0 0 0 0 0 0 0 0 0 0 0 0 0 0 0 0 0 0 0 0 0 0 0 0 0 0 0 0
0 0 0 0 0 0 0 0 0 0 0 0 0 0 0 0 0 0 0 0 0 0 0 0 0 0 0 0 0 0 0 0 0 0 0 0 0 0 0 0 0 0 0 0
0 0 0 0 0 0 0 0 0 0 0 0 0 0 0 0 0 0 0 0 0 0 0 0 0 0 0 0 0 0 0 0 0 0 0 0 0 0 0 0 0 0 0 0
0 0 0 0 0 0 0 0 0 0 0 0 0 0 0 0 0 0 0 0 0 0 0 0 0 0 0 0 0 0 0 0 0 0 0 0 0 0 0 0 0 0 0 0
0 0 0 0 0 0 0 0 0 0 0 0 0 0 0 0 0 0 0 0 0 0 0 0 0 0 0 0 0 0 0 0 0 0 0 0 0 0 0 0 0 0 0 0
0 0 0 0 0 0 0 0 0 0 0 0 0 0 0 0 0 0 0 0 0 0 0 0 0 0 0 0 0 0 0 0 0 0 0 0 0 0 0 0 0 0 0 0
0 0 0 0 0 0 0 0 0 0 0 0 0 0 0 0 0 0 0 0 0 0 0 0 0 0 0 0 0 0 0 0 0 0 0 0 0 0 0 0 0 0 0 0
0 0 0 0 0 0 0 0 0 0 0 0 0 0 0 0 0 0 0 0 0 0 0 0 0 0 0 0 0 0 0 0 0 0 0 0 0 0 0 0 0 0 0 0
0 0 0 0 0 0 0 0 0 0 0 0 0 0 0 0 0 0 0 0 0 0 0 0 0 0 0 0 0 0 0 0 0 0 0 0 0 0 0 0 0 0 0 0
Height
5743 5743 5741 5739 5738 5737 5735 5735 5735 5735 5733 5733 5734 5735 5736 5736 5736 5736 5736 5736 5736 5736 5736 5736 5736 5735 5735 5735 5735 5734 5734 5734 5733 5733 5732 5732 5732 5731 5731 5731 5731 5731 5731 5730
5736 5734 5733 5731 5729 5728 5727 5726 5726 5726 5725 5724 5725 5726 5727 5727 5727 5727 5728 5728 5728 5728 5728 5728 5728 5728 5728 5728 5727 5727 5727 5727 5726 5726 5726 5726 5725 5725 5724 5724 5724 5724 5724 5723
5727 5727 5724 5722 5720 5719 5718 5717 5717 5716 5716 5715 5715 5717 5719 5719 5719 5719 5720 5720 5720 5721 5721 5720 5720 5720 5720 5720 5720 5720 5720 5720 5719 5719 5719 5719 5718 5718 5718 5717 5717 5717 5716 5716
5718 5716 5714 5713 5711 5710 5709 5708 5707 5706 5706 5706 5707 5705 5711 5710 5711 5711 5711 5711 5712 5712 5712 5712 5712 5712 5712 5712 5712 5712 5712 5712 5712 5712 5712 5712 5711 5711 5711 5710 5710 5710 5709 5708
5708 5706 5705 5703 5703 5701 5700 5699 5698 5697 5696 5696 5697 5696 5700 5701 5702 5702 5702 5703 5703 5703 5703 5703 5703 5703 5703 5704 5704 5704 5704 5704 5704 5704 5704 5704 5704 5704 5703 5703 5703 5703 5702 5702
5699 5697 5695 5694 5693 5691 5690 5689 5688 5687 5687 5687 5689 5687 5689 5692 5693 5693 5693 5693 5694 5694 5694 5694 5694 5694 5695 5695 5695 5696 5696 5697 5696 5696 5697 5697 5697 5697 5696 5696 5696 5696 5695 5695
5690 5688 5686 5685 5684 5683 5681 5681 5679 5678 5677 5679 5680 5678 5681 5683 5683 5684 5684 5684 5684 5684 5685 5685 5685 5686 5686 5687 5687 5688 5688 5689 5689 5689 5689 5689 5689 5689 5689 5689 5688 5688 5688 5688
5680 5679 5677 5675 5674 5673 5672 5672 5672 5670 5669 5670 5670 5669 5673 5673 5674 5673 5674 5675 5675 5675 5676 5676 5677 5677 5678 5678 5679 5680 5680 5681 5681 5681 5681 5681 5682 5682 5681 5681 5681 5681 5680 5680
5669 5669 5668 5666 5664 5664 5663 5663 5663 5661 5660 5660 5661 5662 5663 5664 5664 5664 5665 5665 5666 5666 5667 5667 5668 5669 5669 5670 5671 5671 5672 5672 5673 5673 5673 5674 5674 5674 5673 5673 5673 5673 5672 5672
5658 5658 5658 5657 5656 5654 5654 5654 5653 5652 5651 5650 5651 5652 5654 5655 5655 5655 5655 5656 5656 5657 5658 5658 5659 5660 5661 5662 5662 5663 5663 5664 5664 5665 5665 5665 5666 5666 5666 5665 5665 5664 5664 5664
5648 5647 5647 5646 5645 5645 5644 5644 5643 5643 5642 5642 5641 5645 5645 5646 5646 5646 5646 5646 5646 5647 5648 5649 5650 5651 5652 5653 5653 5654 5655 5655 5656 5656 5657 5657 5657 5657 5657 5657 5657 5656 5656 5655
5637 5636 5635 5635 5635 5633 5633 5634 5634 5634 5633 5633 5632 5637 5636 5636 5636 5636 5637 5636 5636 5637 5638 5639 5640 5641 5642 5643 5644 5645 5645 5646 5647 5647 5648 5648 5648 5648 5649 5649 5648 5648 5648 5647
5626 5625 5623 5624 5625 5623 5622 5622 5622 5622 5622 5622 5623 5627 5627 5626 5626 5626 5626 5626 5627 5627 5628 5629 5630 5631 5632 5633 5634 5635 5636 5637 5637 5638 5639 5639 5639 5639 5640 5640 5640 5639 5639 5638
5614 5613 5613 5613 5612 5611 5611 5612 5611 5610 5610 5611 5613 5615 5617 5616 5616 5616 5616 5616 5617 5618 5618 5619 5620 5621 5622 5623 5624 5625 5626 5627 5628 5628 5629 5630 5630 5630 5630 5630 5630 5630 5630 5629
5603 5603 5602 5601 5600 5599 5599 5600 5600 5599 5600 5601 5603 5604 5606 5605 5605 5606 5606 5606 5607 5607 5608 5609 5610 5611 5612 5613 5614 5615 5616 5617 5618 5619 5619 5620 5620 5621 5621 5621 5621 5621 5620 5620
5593 5592 5591 5590 5589 5587 5587 5589 5589 5589 5589 5589 5590 5592 5594 5593 5593 5594 5595 5596 5596 5597 5598 5598 5599 5600 5601 5602 5604 5605 5606 5607 5608 5609 5610 5610 5611 5611 5611 5611 5611 5611 5611 5610
5582 5581 5579 5579 5578 5575 5576 5579 5578 5578 5578 5578 5579 5582 5582 5582 5582 5582 5583 5584 5585 5586 5587 5588 5589 5590 5591 5592 5593 5594 5595 5596 5597 5598 5599 5600 5601 5601 5601 5601 5601 5601 5601 5601
5572 5570 5568 5567 5567 5565 5570 5568 5567 5566 5566 5567 5567 5569 5570 5570 5571 5571 5572 5573 5574 5575 5576 5576 5577 5579 5580 5581 5582 5583 5585 5586 5587 5588 5589 5589 5590 5590 5591 5591 5591 5592 5591 5591
5561 5559 5557 5556 5555 5555 5559 5557 5556 5554 5555 5555 5555 5556 5557 5558 5559 5560 5560 5560 5561 5563 5564 5565 5566 5567 5568 5570 5571 5572 5574 5575 5576 5577 5578 5578 5579 5580 5580 5581 5581 5581 5581 5581
5551 5549 5548 5546 5544 5544 5549 5547 5544 5544 5544 5545 5544 5544 5545 5545 5547 5550 5549 5548 5549 5550 5552 5553 5554 5555 5557 5558 5559 5561 5563 5564 5565 5566 5566 5567 5568 5569 5569 5570 5570 5570 5570 5570
5541 5538 5537 5536 5533 5534 5537 5536 5534 5534 5534 5533 5532 5532 5533 5533 5534 5536 5536 5536 5537 5538 5539 5540 5542 5543 5544 5546 5548 5550 5551 5552 5553 5554 5555 5556 5557 5558 5558 5559 5559 5559 5559 5559
5530 5528 5527 5526 5524 5527 5526 5524 5523 5522 5522 5521 5521 5521 5521 5521 5522 5523 5523 5523 5524 5525 5527 5528 5529 5531 5532 5534 5536 5538 5539 5540 5542 5543 5544 5545 5546 5547 5547 5548 5548 5548 5548 5548
5520 5519 5517 5516 5517 5516 5514 5512 5511 5511 5510 5510 5510 5510 5510 5510 5510 5511 5511 5511 5512 5513 5514 5516 5517 5519 5520 5521 5523 5525 5527 5528 5530 5531 5533 5534 5535 5536 5536 5536 5537 5537 5537 5537
5510 5508 5506 5505 5506 5505 5503 5502 5501 5500 5498 5498 5498 5498 5498 5497 5498 5498 5498 5499 5499 5500 5501 5503 5505 5506 5508 5509 5510 5512 5514 5516 5518 5520 5521 5523 5524 5525 5525 5525 5526 5526 5526 5526
5500 5498 5496 5495 5495 5494 5494 5492 5490 5489 5487 5487 5486 5486 5485 5485 5486 5486 5486 5487 5487 5488 5489 5491 5492 5494 5496 5497 5498 5500 5502 5504 5506 5508 5510 5511 5513 5513 5514 5515 5515 5515 5515 5515
5490 5488 5486 5485 5485 5483 5482 5481 5479 5477 5477 5476 5475 5475 5474 5473 5474 5474 5475 5475 5476 5477 5478 5479 5481 5482 5484 5486 5487 5489 5490 5492 5494 5497 5499 5500 5502 5503 5503 5504 5505 5504 5505 5505
Wind_Speed
27 28 28 29 29 30 30 30 30 30 30 31 31 30 28 28 28 28 28 28 28 28 28 28 27 27 27 27 27 26 26 26 25 25 25 26 26 26 27 28 29 29 29 29
28 29 29 29 30 31 31 31 31 31 31 33 32 31 29 29 28 28 28 28 28 28 27 27 27 28 27 27 27 27 26 26 26 26 26 26 26 26 27 27 28 29 29 29
30 29 30 30 30 31 31 32 32 32 32 33 34 32 30 29 28 28 28 29 28 28 27 28 28 28 27 27 27 27 27 26 26 26 26 26 26 26 27 28 27 27 28 28
31 31 31 31 31 31 31 32 33 33 33 33 34 34 29 29 29 28 29 29 29 28 28 28 28 28 27 27 27 27 27 27 27 27 26 27 26 27 27 27 27 27 27 27
31 31 31 31 31 31 31 32 33 33 34 34 33 35 30 29 29 29 29 29 29 29 28 28 28 28 28 28 27 27 27 27 27 28 27 27 27 27 27 28 28 28 28 28
31 31 31 31 31 31 32 33 33 33 33 34 32 34 31 29 29 29 29 29 29 29 29 28 28 28 28 27 27 27 27 27 27 28 28 27 27 27 27 28 28 28 28 28
31 31 31 31 31 31 31 32 33 33 33 33 31 33 32 29 28 29 29 28 28 29 29 29 28 28 28 28 28 27 27 27 27 28 28 28 28 27 27 27 28 28 28 27
32 31 30 31 31 31 31 31 32 33 34 32 31 32 31 29 29 29 29 29 28 29 29 29 29 28 28 28 28 28 28 27 27 28 28 28 28 28 28 28 28 28 28 28
34 32 31 32 31 32 31 31 31 33 34 34 32 31 30 30 29 29 29 29 29 29 29 30 30 29 29 28 28 28 28 28 28 28 28 28 28 29 29 29 28 28 28 28
35 35 33 33 33 32 32 32 32 32 34 35 34 32 30 29 29 30 30 30 30 30 30 30 30 30 30 30 30 30 29 29 29 29 29 29 29 29 29 29 29 28 28 29
36 36 35 34 34 33 33 33 33 34 34 35 35 33 30 30 30 30 30 30 31 31 31 31 31 31 31 31 31 31 31 30 30 30 29 29 30 30 29 29 29 29 29 29
36 37 36 35 34 35 34 34 34 35 36 35 36 34 31 31 30 31 31 32 32 32 32 32 32 32 31 32 32 32 32 31 31 31 30 30 30 30 30 30 30 30 30 29
35 36 37 35 34 34 35 34 36 37 37 37 36 35 32 32 31 31 32 32 32 33 34 34 33 33 32 32 32 32 33 32 32 32 32 31 31 31 31 31 31 31 30 30
36 36 37 36 35 35 34 35 36 38 38 38 37 35 34 34 33 32 33 33 33 34 34 34 34 33 33 33 33 33 33 33 33 33 32 32 32 32 32 32 32 32 31 32
36 36 36 36 35 36 35 35 36 37 38 39 38 38 35 36 36 35 35 35 34 34 35 35 34 34 35 34 34 34 34 34 34 33 33 33 33 33 32 32 33 33 33 33
35 36 36 36 36 37 37 36 36 37 38 39 39 38 37 38 38 38 37 36 35 34 34 34 34 35 35 35 35 35 35 35 35 34 33 33 33 33 33 33 33 33 33 33
35 35 36 36 35 37 37 35 37 38 39 39 39 38 39 39 39 39 39 38 38 37 36 35 35 36 36 36 36 36 35 35 35 35 34 34 34 34 34 34 34 34 33 34
35 35 36 36 35 36 34 34 35 37 39 40 40 39 39 40 40 40 40 40 40 39 38 38 37 36 37 37 37 36 35 35 35 35 35 35 36 36 35 34 34 34 34 35
34 35 35 35 36 35 33 33 34 36 37 39 40 40 40 40 41 40 41 41 41 40 40 40 40 39 38 38 37 37 36 35 35 35 36 36 36 36 35 35 35 35 35 35
33 33 34 34 35 34 32 32 33 36 36 36 38 39 40 41 41 40 41 41 41 41 40 40 40 39 39 39 38 38 37 36 36 36 36 36 36 35 36 36 35 35 36 36
33 33 33 34 35 34 33 33 33 34 35 35 37 38 39 40 40 40 40 41 42 41 41 40 39 39 39 39 39 38 38 38 37 36 36 36 35 35 36 36 36 36 36 36
33 32 33 34 34 33 33 33 34 35 35 35 36 37 37 38 39 39 40 40 41 41 41 40 40 39 39 39 39 39 39 39 38 37 37 37 36 36 36 36 36 36 36 36
33 32 33 33 33 33 33 34 35 36 37 37 36 37 37 38 38 39 39 39 40 40 40 40 40 40 39 39 40 39 39 39 39 38 37 37 37 37 36 36 36 35 35 36
32 32 33 33 33 33 34 35 36 37 37 37 37 37 38 38 38 38 38 38 38 39 39 40 40 39 39 38 38 38 38 39 39 38 37 37 36 36 35 35 35 34 34 34
32 32 33 34 34 34 34 35 36 37 37 37 37 37 37 37 36 36 36 36 36 36 36 37 37 37 37 36 35 36 37 38 38 38 38 37 36 35 35 34 34 34 33 33
31 33 33 33 34 34 34 35 35 35 35 35 34 34 33 34 34 34 34 34 33 34 34 34 34 34 34 34 34 34 35 35 36 36 36 35 35 34 34 34 34 34 34 33
Wind_Direction
277 277 278 277 276 274 273 272 270 268 266 265 264 264 263 263 263 263 262 263 264 265 266 266 268 269 268 268 268 268 268 268 267 267 268 268 267 266 264 264 265 266 268 268
278 279 278 277 276 274 273 272 270 268 266 266 265 263 263 262 262 262 262 263 264 265 265 266 267 267 267 267 267 267 267 268 268 268 269 269 268 267 265 266 268 268 270 271
279 280 279 277 275 274 273 272 271 269 267 266 267 264 262 261 261 261 262 262 263 264 264 265 266 266 266 266 267 266 266 267 267 268 267 268 268 268 267 267 268 269 271 270
279 279 278 277 276 275 273 272 270 270 268 267 268 267 261 261 261 262 262 262 263 263 263 264 265 265 265 266 266 265 266 267 267 268 268 269 270 270 271 270 270 271 272 271
280 279 277 276 276 275 274 272 271 270 269 269 268 268 263 261 260 262 262 262 262 262 263 264 265 264 264 264 264 264 266 267 267 268 270 269 269 271 271 270 270 271 272 271
280 278 277 277 276 275 274 272 271 269 269 268 268 269 266 263 262 262 262 261 261 262 262 263 263 263 263 263 263 264 265 267 267 267 268 269 270 271 271 269 269 270 271 271
279 278 277 277 276 274 274 273 272 270 269 269 269 268 268 265 263 262 261 260 261 262 262 262 261 261 261 262 262 263 265 266 267 267 267 268 270 271 272 271 269 269 270 270
280 278 277 278 276 275 273 271 270 271 271 271 269 268 268 266 265 263 261 261 261 261 261 261 260 260 261 261 261 262 264 265 266 266 266 267 268 268 271 272 270 269 270 270
280 279 277 277 276 274 272 270 269 268 269 269 270 270 268 267 265 264 263 263 263 262 262 261 260 260 260 260 261 262 263 265 266 266 266 267 268 268 270 272 270 269 270 270
279 278 276 276 275 272 270 269 266 266 268 268 268 268 268 266 265 264 264 263 263 262 261 260 261 261 261 260 261 261 262 263 265 265 266 267 268 269 270 271 269 268 268 269
278 278 277 275 273 272 268 266 266 265 265 268 269 268 268 267 265 263 262 261 262 262 261 260 260 261 262 261 261 261 262 263 264 265 266 267 268 268 269 271 270 268 269 269
279 278 277 275 273 270 268 266 263 262 262 264 267 268 267 266 265 263 261 261 261 261 260 259 259 260 262 262 261 261 262 263 264 264 265 267 269 268 268 270 269 268 268 269
280 279 278 275 272 270 267 265 262 261 261 262 263 266 266 265 264 263 261 261 260 260 260 260 260 261 261 262 261 261 262 263 264 264 264 266 268 268 268 268 268 268 269 268
279 278 277 277 275 271 267 263 261 259 259 260 261 263 262 262 262 261 261 260 260 260 260 260 261 261 261 262 261 261 262 262 263 263 263 265 266 267 268 268 268 268 269 268
279 279 278 276 274 271 267 263 259 259 259 260 260 261 262 261 261 260 261 261 260 260 259 259 260 261 261 261 260 260 261 260 261 262 262 263 264 266 267 267 268 268 269 269
280 281 280 276 273 271 268 264 261 260 259 260 260 259 259 260 261 261 261 262 261 261 259 258 259 260 260 261 260 260 260 260 260 261 262 263 264 265 266 267 268 268 267 268
279 281 280 277 274 271 269 266 263 262 261 261 261 260 258 258 260 262 261 260 261 260 259 258 259 259 260 260 260 259 259 259 260 261 262 262 263 265 265 266 267 268 267 267
278 279 279 278 275 272 272 268 266 265 264 262 262 261 260 259 259 261 262 262 261 261 260 259 259 259 259 260 260 260 260 260 261 261 261 262 264 265 265 265 266 267 267 267
279 279 278 278 277 275 271 269 268 266 264 263 263 262 261 260 259 260 262 262 262 262 261 260 260 259 258 258 259 259 260 261 261 261 261 262 263 263 263 264 266 267 268 268
280 279 278 277 277 276 275 272 270 268 267 266 265 264 263 263 262 261 261 261 261 261 260 260 260 259 258 257 258 258 258 260 261 261 261 262 262 262 262 264 266 267 267 267
279 278 276 276 276 275 274 273 272 271 270 267 265 265 265 265 265 263 261 261 261 261 260 259 259 258 259 258 258 258 258 259 261 260 261 261 262 262 263 264 265 266 267 268
278 278 275 275 276 276 275 274 272 271 270 269 267 267 266 265 265 265 263 262 261 260 259 259 257 257 258 258 258 258 258 258 259 260 261 261 262 264 264 265 265 266 267 268
279 278 277 276 276 275 274 274 274 273 270 269 268 268 268 267 266 266 265 264 262 260 258 257 257 257 257 258 258 256 255 257 258 259 261 261 262 264 265 265 265 266 267 269
278 278 276 275 275 275 274 273 273 273 273 272 271 270 269 269 268 267 266 265 264 262 260 259 259 259 259 258 257 255 254 255 256 258 259 260 261 262 264 265 265 265 266 268
279 278 276 276 276 275 276 275 274 273 273 273 273 272 270 269 268 267 267 265 263 262 260 260 260 259 259 258 256 255 255 254 256 257 258 259 261 262 263 265 265 264 265 266
278 278 278 278 278 277 277 276 276 275 275 274 273 271 271 270 268 267 266 265 263 262 261 260 259 258 257 256 256 256 256 256 256 256 257 258 259 261 262 263 264 264 264 265